Location: Unspecified
(49.2170°N, 0.0000°E)
Time: 23:12:37
(UTC+00:00)

A-11 Canister half - Pass Details

Date: 25 June 2021
Orbit: 1513 x 1687 km, 47.2° (Epoch: 30 July)

Event Time Altitude Azimuth Distance (km) Brightness Sun altitude
Exits shadow 03:11:35 - 224° (SW) 4,228 10.6 -6.1°
Reaches altitude 10° 03:12:34 10° 222° (SW) 3,934 10.4 -6.0°
Maximum altitude 03:22:13 53° 150° (SSE) 1,963 9.5 -4.9°
Drops below altitude 10° 03:31:37 10° 77° (ENE) 3,836 12.2 -3.8°
Sets 03:34:46 0° 73° (ENE) 4,799 12.9 -3.4°
